Burlington, WI

2:16 PM CST on January 21, 2017 (GMT -0600)
Burlington Municipal Airport

Weather History for KBUU - December, 2012

Change the Weather History Date:

Wednesday, December 12, 2012

  Actual Average (KENW) Record (KENW)
Temperature  
Mean Temperature 33 °F -  
Max Temperature 42 °F 36 °F 61 °F (1949)
Min Temperature 24 °F 20 °F -6 °F (1962)
Degree Days  
Heating Degree Days 32    
Moisture  
Dew Point 26 °F    
Average Humidity 75    
Maximum Humidity 87    
Minimum Humidity 53    
Precipitation  
Precipitation 0.00 in - - ()
Sea Level Pressure  
Sea Level Pressure 30.18 in    
Wind  
Wind Speed 10 mph (SSW)    
Max Wind Speed 20 mph    
Max Gust Speed 28 mph    
Visibility 10 miles    
Events      
Averages and records for this station are not official NWS values.
T = Trace of Precipitation, MM = Missing Value Source: NWS Daily Summary

Daily Weather History Graph

Daily Weather History Graph

Search for Another Location

Airport or City:

Trip Planner

Search our weather history database for the weather conditions in past years. The results will help you decide how hot, cold, wet, or windy it might be!

Date:

Astronomy

Dec. 12, 2012 Rise Set
Actual Time 7:14 AM CST 4:19 PM CST
Civil Twilight 6:42 AM CST 4:51 PM CST
Nautical Twilight 6:06 AM CST 5:27 PM CST
Astronomical Twilight 5:32 AM CST 6:01 PM CST
Moon 6:18 AM CST (12/12) 3:57 PM CST (12/12)
Length of Visible Light 10h 09m
Length of Day
9h 05m
Waning Crescent, 1% of the Moon is Illuminated
Dec 12
Waning Crescent
Dec 13
New
Dec 19
First Quarter
Dec 28
Full
Jan 4
Last Quarter

Hourly Weather History & Observations

Time (CST) Temp. Windchill Dew Point Humidity Pressure Visibility Wind Dir Wind Speed Gust Speed Precip Events Conditions
12:15 AM 32.0 °F 23.0 °F 23.0 °F 69% 30.09 in 10.0 mi SW 11.5 mph - N/A   Overcast
12:35 AM 32.0 °F 23.6 °F 24.8 °F 75% 30.09 in 10.0 mi SW 10.4 mph - N/A   Overcast
12:55 AM 32.0 °F 23.6 °F 24.8 °F 75% 30.10 in 10.0 mi SW 10.4 mph - N/A   Overcast
1:15 AM 32.0 °F 24.8 °F 24.8 °F 75% 30.10 in 10.0 mi SW 8.1 mph - N/A   Overcast
1:55 AM 32.0 °F 26.4 °F 24.8 °F 75% 30.12 in 10.0 mi WSW 5.8 mph - N/A   Overcast
2:15 AM 30.2 °F 26.7 °F 24.8 °F 80% 30.13 in 10.0 mi WSW 3.5 mph - N/A   Overcast
2:35 AM 30.2 °F - 24.8 °F 80% 30.13 in 10.0 mi Calm Calm - N/A   Overcast
2:55 AM 30.2 °F 26.7 °F 26.6 °F 86% 30.13 in 10.0 mi SW 3.5 mph - N/A   Overcast
3:15 AM 30.2 °F 26.7 °F 24.8 °F 80% 30.13 in 10.0 mi SW 3.5 mph - N/A   Overcast
3:55 AM 28.4 °F 22.2 °F 23.0 °F 80% 30.13 in 10.0 mi South 5.8 mph - N/A   Mostly Cloudy
4:15 AM 26.6 °F - 23.0 °F 86% 30.14 in 10.0 mi Calm Calm - N/A   Scattered Clouds
4:35 AM 24.8 °F 20.5 °F 21.2 °F 86% 30.14 in 10.0 mi South 3.5 mph - N/A   Clear
4:55 AM 26.6 °F 20.0 °F 23.0 °F 86% 30.14 in 10.0 mi South 5.8 mph - N/A   Clear
5:15 AM 26.6 °F 18.2 °F 23.0 °F 86% 30.15 in 10.0 mi South 8.1 mph - N/A   Clear
5:35 AM 26.6 °F 18.2 °F 23.0 °F 86% 30.16 in 10.0 mi South 8.1 mph - N/A   Clear
5:55 AM 26.6 °F 18.2 °F 21.2 °F 80% 30.16 in 10.0 mi South 8.1 mph - N/A   Clear
6:15 AM 26.6 °F 20.0 °F 21.2 °F 80% 30.17 in 10.0 mi SSW 5.8 mph - N/A   Clear
6:35 AM 24.8 °F 16.1 °F 21.2 °F 86% 30.17 in 10.0 mi South 8.1 mph - N/A   Clear
6:55 AM 26.6 °F 18.2 °F 21.2 °F 80% 30.18 in 10.0 mi SSW 8.1 mph - N/A   Clear
7:35 AM 26.6 °F 21.2 °F 21.2 °F 80% 30.18 in 10.0 mi South 4.6 mph - N/A   Clear
7:55 AM 26.6 °F 20.0 °F 23.0 °F 86% 30.19 in 10.0 mi South 5.8 mph - N/A   Clear
8:15 AM 28.4 °F 19.7 °F 23.0 °F 80% 30.19 in 10.0 mi South 9.2 mph - N/A   Clear
8:35 AM 30.2 °F 21.9 °F 23.0 °F 75% 30.19 in 10.0 mi SSW 9.2 mph - N/A   Clear
8:55 AM 32.0 °F 23.6 °F 23.0 °F 69% 30.20 in 10.0 mi SSW 10.4 mph - N/A   Clear
9:15 AM 32.0 °F 24.8 °F 24.8 °F 75% 30.21 in 10.0 mi SSW 8.1 mph - N/A   Clear
9:35 AM 33.8 °F 25.8 °F 24.8 °F 70% 30.22 in 10.0 mi SSW 10.4 mph - N/A   Clear
9:55 AM 35.6 °F 27.5 °F 26.6 °F 70% 30.23 in 10.0 mi SSW 11.5 mph 16.1 mph N/A   Clear
10:15 AM 35.6 °F 26.6 °F 24.8 °F 65% 30.23 in 10.0 mi SSW 13.8 mph - N/A   Clear
10:55 AM 37.4 °F 29.3 °F 26.6 °F 65% 30.22 in 10.0 mi SSW 12.7 mph 18.4 mph N/A   Clear
11:15 AM 39.2 °F 32.5 °F 26.6 °F 61% 30.22 in 10.0 mi SSW 10.4 mph - N/A   Clear
11:35 AM 41.0 °F 33.1 °F 26.6 °F 57% 30.22 in 10.0 mi SSW 15.0 mph 19.6 mph N/A   Clear
11:55 AM 41.0 °F 32.8 °F 28.4 °F 61% 30.21 in 10.0 mi SSW 16.1 mph - N/A   Clear
12:15 PM 41.0 °F 32.5 °F 26.6 °F 57% 30.21 in 10.0 mi SSW 17.3 mph - N/A   Clear
12:35 PM 41.0 °F 33.1 °F 26.6 °F 57% 30.21 in 10.0 mi SSW 15.0 mph 23.0 mph N/A   Clear
12:55 PM 42.8 °F 35.4 °F 28.4 °F 57% 30.20 in 10.0 mi SSW 15.0 mph 21.9 mph N/A   Clear
1:15 PM 42.8 °F 34.3 °F 28.4 °F 57% 30.19 in 10.0 mi SSW 19.6 mph 24.2 mph N/A   Clear
1:35 PM 42.8 °F 34.3 °F 26.6 °F 53% 30.18 in 10.0 mi South 19.6 mph 25.3 mph N/A   Clear
1:55 PM 41.0 °F 31.9 °F 28.4 °F 61% 30.18 in 10.0 mi SSW 19.6 mph 27.6 mph N/A   Clear
2:15 PM 41.0 °F 31.9 °F 28.4 °F 61% 30.18 in 10.0 mi South 19.6 mph 24.2 mph N/A   Clear
2:35 PM 41.0 °F 32.5 °F 28.4 °F 61% 30.18 in 10.0 mi SSW 17.3 mph 25.3 mph N/A   Clear
3:15 PM 41.0 °F 33.5 °F 28.4 °F 61% 30.19 in 10.0 mi South 13.8 mph 24.2 mph N/A   Clear
3:35 PM 39.2 °F 32.0 °F 28.4 °F 65% 30.19 in 10.0 mi South 11.5 mph 17.3 mph N/A   Clear
3:55 PM 37.4 °F 29.3 °F 28.4 °F 70% 30.20 in 10.0 mi SSW 12.7 mph 19.6 mph N/A   Clear
4:15 PM 37.4 °F 29.8 °F 28.4 °F 70% 30.20 in 10.0 mi South 11.5 mph - N/A   Clear
4:35 PM 35.6 °F 29.9 °F 28.4 °F 75% 30.20 in 10.0 mi South 6.9 mph - N/A   Clear
4:55 PM 33.8 °F 27.7 °F 28.4 °F 81% 30.20 in 10.0 mi South 6.9 mph - N/A   Clear
5:15 PM 33.8 °F 27.7 °F 26.6 °F 75% 30.19 in 10.0 mi South 6.9 mph - N/A   Clear
5:55 PM 33.8 °F 27.7 °F 26.6 °F 75% 30.19 in 10.0 mi South 6.9 mph - N/A   Clear
6:15 PM 33.8 °F 27.0 °F 26.6 °F 75% 30.19 in 10.0 mi South 8.1 mph - N/A   Clear
6:35 PM 33.8 °F 27.0 °F 26.6 °F 75% 30.19 in 10.0 mi South 8.1 mph - N/A   Clear
7:15 PM 33.8 °F 27.0 °F 26.6 °F 75% 30.19 in 10.0 mi South 8.1 mph - N/A   Clear
7:35 PM 33.8 °F 26.4 °F 26.6 °F 75% 30.19 in 10.0 mi South 9.2 mph - N/A   Clear
7:55 PM 33.8 °F 25.8 °F 28.4 °F 81% 30.20 in 10.0 mi South 10.4 mph - N/A   Clear
8:15 PM 33.8 °F 25.3 °F 28.4 °F 81% 30.19 in 10.0 mi South 11.5 mph 16.1 mph N/A   Clear
8:35 PM 33.8 °F 25.3 °F 28.4 °F 81% 30.19 in 10.0 mi South 11.5 mph - N/A   Clear
8:55 PM 33.8 °F 25.3 °F 28.4 °F 81% 30.19 in 10.0 mi South 11.5 mph 18.4 mph N/A   Clear
9:15 PM 33.8 °F 23.9 °F 28.4 °F 81% 30.19 in 10.0 mi SSW 15.0 mph 20.7 mph N/A   Clear
9:35 PM 33.8 °F 23.5 °F 28.4 °F 81% 30.20 in 10.0 mi SSW 16.1 mph 21.9 mph N/A   Clear
9:55 PM 33.8 °F 23.9 °F 28.4 °F 81% 30.20 in 10.0 mi SSW 15.0 mph 20.7 mph N/A   Clear
10:15 PM 33.8 °F 24.8 °F 28.4 °F 81% 30.20 in 10.0 mi SSW 12.7 mph - N/A   Clear
10:35 PM 32.0 °F 22.5 °F 28.4 °F 87% 30.20 in 10.0 mi SSW 12.7 mph 18.4 mph N/A   Clear
10:55 PM 32.0 °F 22.5 °F 28.4 °F 87% 30.21 in 10.0 mi SSW 12.7 mph 18.4 mph N/A   Clear
11:15 PM 32.0 °F 22.1 °F 28.4 °F 87% 30.20 in 10.0 mi SSW 13.8 mph - N/A   Clear
11:35 PM 32.0 °F 22.1 °F 26.6 °F 80% 30.20 in 10.0 mi South 13.8 mph 20.7 mph N/A   Clear
11:55 PM 32.0 °F 23.0 °F 26.6 °F 80% 30.21 in 10.0 mi South 11.5 mph - N/A   Clear